Tracking 29487 objects as of 11-Sep-2024
HD Live streaming from Space Station
objects crossing your sky now

TITAN 3C TRANSTAGE DEB

Track TITAN 3C TRANSTAGE DEB now!
10-day predictions


NORAD ID: 1653
Int'l Code: 1965-082Q
Perigee: 660.0 km
Apogee: 718.6 km
Inclination: 32.1 °
Period: 98.4 minutes
Semi major axis: 7060 km
RCS: 0.6097 m2 (medium)
Launch date: October 15, 1965
Source: United States (US)
Launch site: AIR FORCE EASTERN TEST RANGE (AFETR)

Note: This is SATELLITE DEBRIS
Your satellite tracking list
Your tracking list is empty




NASA's NSSDC Master Catalog

Two Line Element Set (TLE):
1 01653U 65082Q   24254.65805567  .00001762  00000-0  32347-3 0  9993
2 01653  32.1202  27.4037 0041468 341.8267  18.0896 14.63415984116986
Source of the keplerian elements: AFSPC